Location: Córrego Montividiu
(13.2496°S, 48.8603°W)
Time: 10:41:19
(UTC+00:00)

FUSE - Pass Details

Date: 11 March 2026
Orbit: 737 x 751 km, 25.0° (Epoch: 22 April)

Event Time Altitude Azimuth Distance (km) Brightness Sun altitude
Rises 22:59:43 0° 282° (WNW) 3,157 8.4 -22.0°
Reaches altitude 10° 23:02:12 10° 277° (W) 2,239 7.4 -22.6°
Maximum altitude 23:07:24 55° 200° (SSW) 885 4.4 -23.9°
Enters shadow 23:08:52 42° 149° (SSE) 1,058 4.5 -24.2°
